Flag for U.S.A. Weather past 2 weeks in Panama City, Florida, U.S.A.

Now
50 °F

Clear.


Feels Like: 48 °F
Forecast: 43 / 60 °F
Wind: 6 mph from East

Location: Tyndall Air Force Base

Current Time: Feb 27, 2015 at 8:23:19 PM

Latest Report: Feb 27, 2015 at 7:58 PM


Visibility: 10 mi

Pressure: 30.34 "Hg

Humidity: 68%

Dew point: 40 °F

Location of Panama CityLocation

Historic Weather in Panama City — Graph

°F

Panama City temperature yesterday

Maximum temperature yesterday: 49 °F (at 2:58 PM)
Minimum temperature yesterday: 43 °F (at 5:03 AM)
Average temperature yesterday: 45 °F

Past Weeks' High & Low Weather Summary

 TemperatureHumidityPressure
High72 °F (Feb 23, 1:58 PM)100% (Feb 17, 3:03 AM)30.47 "Hg (Feb 17, 3:03 AM)
Low29 °F (Feb 20, 5:58 AM)22% (Feb 19, 2:58 PM)29.51 "Hg (Feb 25, 5:58 PM)
Average51 °F71%30.14 "Hg
* Reported Feb 12 6:58 PM — Feb 27 6:58 PM, Panama City, Weather by CustomWeather, © 2015

Note: Actual official high and low records may vary slightly from our data, if they occured in-between our weather recording intervals... More about our weather records

Advertising

Panama City weather history for previous 24 hours

 ConditionsComfort  
Time TempWeatherWind HumidityBarometerVisibility
6:58 PM
Fri, Feb 27
51 °FClear.6 mph65%30.31 "Hg10 mi
5:58 PM51 °FClear.3 mph63%30.30 "Hg10 mi
4:58 PM53 °FClear.7 mph56%30.28 "Hg10 mi
3:58 PM54 °FSunny.8 mph50%30.27 "Hg10 mi
2:58 PM55 °FSunny.6 mph48%30.28 "Hg10 mi
1:58 PM55 °FPassing clouds.9 mph51%30.28 "Hg10 mi
12:58 PM56 °FSunny.8 mph52%30.30 "Hg10 mi
11:58 AM52 °FSunny.9 mph56%30.32 "Hg10 mi
10:58 AM51 °FPassing clouds.7 mph57%30.35 "Hg10 mi
9:58 AM48 °FPassing clouds.12 mph58%30.36 "Hg10 mi
8:58 AM46 °FScattered clouds.9 mph63%30.35 "Hg10 mi
7:58 AM41 °FScattered clouds.9 mph76%30.35 "Hg10 mi
6:58 AM39 °FPassing clouds.8 mph83%30.32 "Hg10 mi
5:58 AM38 °FPassing clouds.8 mph86%30.28 "Hg10 mi
4:58 AM39 °FClear.10 mph85%30.25 "Hg10 mi
3:58 AM39 °FClear.12 mph83%30.23 "Hg10 mi
2:58 AM40 °FPassing clouds.9 mph84%30.21 "Hg10 mi
1:58 AM41 °FPassing clouds.9 mph82%30.21 "Hg10 mi
12:58 AM42 °FPassing clouds.8 mph83%30.21 "Hg10 mi
11:58 PM
Thu, Feb 26
43 °FPassing clouds.7 mph79%30.20 "Hg10 mi
10:58 PM43 °FClear.10 mph80%30.19 "Hg10 mi
9:58 PM44 °FOvercast.8 mph81%30.19 "Hg10 mi
8:58 PM44 °FOvercast.7 mph79%30.17 "Hg10 mi
Weather by CustomWeather, © 2015

See weather overviewHow to use our weather pages